If you wish to contribute or participate in the discussions about articles you are invited to join SKYbrary as a registered user

 Actions

Avord (BA 702) Air Base

From SKYbrary Wiki

LFOA
Airport
ICAO: LFOA
Summary
Name Avord (BA 702) Air Base
Region Europe
Territory France FR.gif
Location , Centre
Serving Avord
Elevation 176.784 m
580 ft
580 ft176.784 m
Type large airport
Coordinates 47° 3' 12.00" N, 2° 37' 57.00" E
Runways
Designator Length Width Surface ROPS
6/24 3503 m11,492.782 ft
45 m147.638 ft
ASP /


METAR
Observation LFOA 260000Z AUTO 07006KT CAVOK 21/08 Q1018
Station Avord
Date/Time 26 August 2019 00:00:00
Wind direction 70°
Wind speed 06 kts
Lowest cloud amount clouds and visibility OK
Temperature 21°C
Dew point 8°C
Humidity 43%
QNH 1018 hPa
Weather condition n/a